TimeMST,TemperatureF,Dew PointF,Humidity,Sea Level PressureIn,VisibilityMPH,Wind Direction,Wind SpeedMPH,Gust SpeedMPH,PrecipitationIn,Events,Conditions,WindDirDegrees,DateUTC
12:53 AM,9.0,1.0,70,29.98,10.0,West,8.1,-,N/A,,Clear,260,2012-12-10 07:53:00
1:53 AM,10.0,1.0,67,29.95,10.0,West,9.2,-,N/A,,Partly Cloudy,260,2012-12-10 08:53:00
2:53 AM,8.1,-0.0,70,29.94,10.0,Calm,Calm,-,N/A,,Scattered Clouds,0,2012-12-10 09:53:00
3:53 AM,16.0,-4.0,41,29.91,10.0,NW,6.9,-,N/A,,Overcast,310,2012-12-10 10:53:00
4:53 AM,16.0,3.0,57,29.91,10.0,West,8.1,18.4,N/A,,Overcast,270,2012-12-10 11:53:00
5:53 AM,14.0,7.0,74,29.94,10.0,West,8.1,-,N/A,,Mostly Cloudy,270,2012-12-10 12:53:00
6:03 AM,14.0,6.8,73,29.71,10.0,West,10.4,-,N/A,,Mostly Cloudy,280,2012-12-10 13:03:00
6:44 AM,14.0,8.6,79,29.69,10.0,West,11.5,-,0.00,,Scattered Clouds,280,2012-12-10 13:44:00
6:53 AM,14.0,8.1,77,29.93,10.0,West,15.0,20.7,0.00,,Partly Cloudy,270,2012-12-10 13:53:00
7:53 AM,15.1,9.0,77,29.91,10.0,West,16.1,29.9,N/A,,Clear,280,2012-12-10 14:53:00
8:53 AM,19.0,10.9,71,29.89,10.0,West,15.0,25.3,N/A,,Clear,280,2012-12-10 15:53:00
9:53 AM,21.9,12.0,66,29.88,10.0,WNW,11.5,21.9,N/A,,Clear,290,2012-12-10 16:53:00
10:53 AM,26.1,12.0,55,29.87,10.0,WNW,12.7,19.6,N/A,,Scattered Clouds,300,2012-12-10 17:53:00
11:53 AM,26.1,12.9,58,29.86,10.0,West,16.1,26.5,N/A,,Clear,280,2012-12-10 18:53:00
12:53 PM,26.1,12.0,55,29.86,10.0,WNW,9.2,20.7,N/A,,Mostly Cloudy,290,2012-12-10 19:53:00
1:53 PM,25.0,14.0,63,29.88,10.0,West,9.2,21.9,N/A,,Overcast,280,2012-12-10 20:53:00
2:13 PM,24.8,15.8,69,29.70,6.0,West,10.4,18.4,0.00,Snow,Light Snow,270,2012-12-10 21:13:00
2:42 PM,24.8,15.8,69,29.71,9.0,West,9.2,-,0.00,Snow,Light Snow,260,2012-12-10 21:42:00
2:53 PM,24.1,15.1,69,29.91,6.0,NW,12.7,21.9,0.00,,Haze,310,2012-12-10 21:53:00
2:57 PM,21.2,15.8,80,29.72,1.8,Variable,5.8,24.2,0.00,Snow,Light Snow,0,2012-12-10 21:57:00
3:12 PM,21.2,14.0,74,29.73,2.5,Variable,5.8,19.6,0.00,Snow,Light Snow,0,2012-12-10 22:12:00
3:18 PM,21.2,14.0,74,29.73,8.0,NW,6.9,-,0.00,,Overcast,320,2012-12-10 22:18:00
3:53 PM,21.9,12.0,66,29.90,10.0,West,8.1,17.3,0.00,,Scattered Clouds,280,2012-12-10 22:53:00
4:29 PM,21.2,12.2,68,29.75,3.0,NW,5.8,-,0.00,Snow,Light Snow,320,2012-12-10 23:29:00
4:34 PM,21.2,14.0,74,29.75,1.8,Variable,4.6,-,0.00,Snow,Light Snow,0,2012-12-10 23:34:00
4:53 PM,19.0,15.1,85,29.92,3.0,Calm,Calm,-,0.01,Snow,Light Snow,0,2012-12-10 23:53:00
5:25 PM,19.4,14.0,80,29.77,2.5,NW,3.5,-,0.00,Snow,Light Snow,320,2012-12-11 00:25:00
5:32 PM,19.4,14.0,80,29.77,4.0,NNW,3.5,-,0.00,Snow,Light Snow,330,2012-12-11 00:32:00
5:53 PM,18.0,12.0,78,29.96,10.0,NW,3.5,-,0.00,,Scattered Clouds,320,2012-12-11 00:53:00
6:43 PM,17.6,10.4,73,29.78,5.0,West,9.2,-,0.00,Snow,Light Snow,280,2012-12-11 01:43:00
6:53 PM,18.0,10.9,74,29.97,6.0,West,10.4,-,0.00,Snow,Light Snow,280,2012-12-11 01:53:00
7:02 PM,17.6,10.4,73,29.78,8.0,WNW,9.2,-,0.00,Snow,Light Snow,300,2012-12-11 02:02:00
7:30 PM,17.6,10.4,73,29.79,2.5,WNW,4.6,-,0.00,Snow,Light Snow,290,2012-12-11 02:30:00
7:39 PM,17.6,12.2,79,29.79,1.8,NW,4.6,-,0.01,Snow,Light Snow,310,2012-12-11 02:39:00
7:48 PM,15.8,12.2,86,29.79,3.0,West,5.8,-,0.01,Snow,Light Snow,280,2012-12-11 02:48:00
7:53 PM,16.0,12.9,88,29.99,5.0,West,6.9,-,0.01,Snow,Light Snow,280,2012-12-11 02:53:00
8:10 PM,17.6,10.4,73,29.79,10.0,NW,10.4,18.4,0.00,,Scattered Clouds,310,2012-12-11 03:10:00
8:53 PM,14.0,8.1,77,29.97,10.0,West,5.8,-,0.00,,Clear,260,2012-12-11 03:53:00
9:53 PM,14.0,10.9,88,29.96,10.0,WSW,6.9,-,N/A,,Overcast,240,2012-12-11 04:53:00
10:48 PM,15.8,12.2,86,29.78,4.0,WSW,6.9,-,0.00,Snow,Light Snow,240,2012-12-11 05:48:00
10:53 PM,15.1,12.0,88,29.94,6.0,WSW,5.8,-,0.00,,Mostly Cloudy,240,2012-12-11 05:53:00
11:06 PM,15.8,12.2,86,29.78,2.5,WSW,5.8,-,0.00,Snow,Light Snow,240,2012-12-11 06:06:00
11:14 PM,15.8,12.2,86,29.78,3.0,WSW,6.9,-,0.00,Snow,Light Snow,240,2012-12-11 06:14:00
11:22 PM,15.8,12.2,86,29.78,2.5,WSW,6.9,-,0.00,Snow,Light Snow,250,2012-12-11 06:22:00
11:28 PM,15.8,12.2,86,29.78,3.0,WSW,8.1,-,0.00,Snow,Light Snow,250,2012-12-11 06:28:00
11:37 PM,17.6,14.0,86,29.78,1.8,WSW,6.9,-,0.00,Snow,Light Snow,250,2012-12-11 06:37:00
11:45 PM,17.6,14.0,86,29.78,0.5,WSW,8.1,-,0.00,Fog-Snow,Snow,250,2012-12-11 06:45:00
11:53 PM,17.1,14.0,88,29.92,0.8,WSW,6.9,-,0.01,Snow,Light Snow,250,2012-12-11 06:53:00